Time,TemperatureF,DewpointF,PressureIn,WindDirection,WindDirectionDegrees,WindSpeedMPH,WindSpeedGustMPH,Humidity,HourlyPrecipIn,Conditions,Clouds,dailyrainin,SolarRadiationWatts/m^2,SoftwareType,DateUTC
2013-01-22 00:00:00,20.4,17.7,29.74,ENE,76,0.0,2.0,89,0.00,,OVC021,0.00,0.00,VWS V14.01,2013-01-22 05:00:00,
2013-01-22 00:05:00,20.4,17.7,29.73,ENE,76,0.0,2.0,89,0.00,,OVC021,0.00,0.00,VWS V14.01,2013-01-22 05:05:00,
2013-01-22 00:10:00,20.4,17.4,29.72,ENE,76,0.0,1.0,88,0.00,,OVC021,0.00,0.00,VWS V14.01,2013-01-22 05:10:00,
2013-01-22 00:15:00,20.4,17.4,29.72,ENE,76,0.0,0.0,88,0.00,,OVC021,0.00,0.00,VWS V14.01,2013-01-22 05:15:00,
2013-01-22 00:20:00,20.4,17.4,29.72,ENE,76,0.0,0.0,88,0.00,,OVC021,0.00,0.00,VWS V14.01,2013-01-22 05:20:00,
2013-01-22 00:25:00,20.3,17.3,29.71,ENE,77,0.0,1.0,88,0.00,,OVC021,0.00,0.00,VWS V14.01,2013-01-22 05:25:00,
2013-01-22 00:30:00,20.3,17.3,29.70,ENE,77,0.0,2.0,88,0.00,,OVC021,0.00,0.00,VWS V14.01,2013-01-22 05:30:00,
2013-01-22 00:35:00,20.3,17.3,29.70,ENE,76,0.0,1.0,88,0.00,,OVC021,0.00,0.00,VWS V14.01,2013-01-22 05:35:00,
2013-01-22 00:40:00,20.3,17.3,29.70,ENE,76,1.0,2.0,88,0.00,,OVC021,0.00,0.00,VWS V14.01,2013-01-22 05:40:00,
2013-01-22 00:45:00,20.3,17.3,29.70,ENE,76,1.0,3.0,88,0.00,,OVC021,0.00,0.00,VWS V14.01,2013-01-22 05:45:00,
2013-01-22 00:50:00,20.3,17.3,29.71,ENE,76,2.0,3.0,88,0.00,,OVC021,0.00,0.00,VWS V14.01,2013-01-22 05:50:00,
2013-01-22 00:55:00,20.3,17.3,29.71,NW,325,3.0,3.0,88,0.00,,OVC021,0.00,0.00,VWS V14.01,2013-01-22 05:55:00,
2013-01-22 01:00:00,20.3,17.3,29.70,NW,325,1.0,3.0,88,0.00,,OVC021,0.00,0.00,VWS V14.01,2013-01-22 06:00:00,
2013-01-22 01:05:00,20.3,17.6,29.70,NW,326,1.0,3.0,89,0.00,,OVC021,0.00,0.00,VWS V14.01,2013-01-22 06:05:00,
2013-01-22 01:10:00,20.3,17.6,29.70,NNW,327,2.0,3.0,89,0.00,,OVC021,0.00,0.00,VWS V14.01,2013-01-22 06:10:00,
2013-01-22 01:15:00,20.3,17.6,29.70,NNW,331,1.0,4.0,89,0.00,,OVC021,0.00,0.00,VWS V14.01,2013-01-22 06:15:00,
2013-01-22 01:20:00,20.3,17.6,29.71,NNW,331,4.0,4.0,89,0.00,,OVC021,0.00,0.00,VWS V14.01,2013-01-22 06:20:00,
2013-01-22 01:25:00,20.3,17.6,29.72,NNW,331,0.0,4.0,89,0.00,,OVC021,0.00,0.00,VWS V14.01,2013-01-22 06:25:00,
2013-01-22 01:30:00,20.3,17.6,29.72,NNW,331,2.0,3.0,89,0.00,,OVC021,0.00,0.00,VWS V14.01,2013-01-22 06:30:00,
2013-01-22 01:35:00,20.4,17.4,29.72,NNW,331,1.0,3.0,88,0.00,,OVC021,0.00,0.00,VWS V14.01,2013-01-22 06:35:00,
2013-01-22 01:40:00,20.4,17.4,29.72,NW,308,2.0,4.0,88,0.00,,OVC021,0.00,0.00,VWS V14.01,2013-01-22 06:40:00,
2013-01-22 01:45:00,20.4,17.4,29.72,NW,311,2.0,5.0,88,0.00,,OVC021,0.00,0.00,VWS V14.01,2013-01-22 06:45:00,
2013-01-22 01:50:00,20.4,17.4,29.72,NW,310,2.0,4.0,88,0.00,,OVC021,0.00,0.00,VWS V14.01,2013-01-22 06:50:00,
2013-01-22 01:55:00,20.4,17.4,29.72,NW,310,2.0,3.0,88,0.00,,OVC021,0.00,0.00,VWS V14.01,2013-01-22 06:55:00,
2013-01-22 02:00:00,20.5,17.8,29.72,WNW,294,3.0,4.0,89,0.00,,OVC021,0.00,0.00,VWS V14.01,2013-01-22 07:00:00,
2013-01-22 02:05:00,20.5,17.8,29.72,WNW,294,2.0,5.0,89,0.00,,OVC021,0.00,0.00,VWS V14.01,2013-01-22 07:05:00,
2013-01-22 02:10:00,20.5,17.5,29.72,WNW,293,2.0,5.0,88,0.00,,OVC021,0.00,0.00,VWS V14.01,2013-01-22 07:10:00,
2013-01-22 02:15:00,20.5,17.5,29.72,NW,308,2.0,6.0,88,0.00,,OVC021,0.00,0.00,VWS V14.01,2013-01-22 07:15:00,
2013-01-22 02:20:00,20.5,17.5,29.72,NW,309,1.0,3.0,88,0.00,,OVC021,0.00,0.00,VWS V14.01,2013-01-22 07:20:00,
2013-01-22 02:25:00,20.4,17.4,29.72,NW,308,2.0,3.0,88,0.00,,OVC021,0.00,0.00,VWS V14.01,2013-01-22 07:25:00,
2013-01-22 02:30:00,20.3,17.3,29.71,NW,309,1.0,4.0,88,0.00,,OVC021,0.00,0.00,VWS V14.01,2013-01-22 07:30:00,
2013-01-22 02:35:00,20.2,17.2,29.71,NW,309,1.0,2.0,88,0.00,,OVC021,0.00,0.00,VWS V14.01,2013-01-22 07:35:00,
2013-01-22 02:40:00,20.1,17.1,29.71,NW,307,1.0,2.0,88,0.00,,OVC021,0.00,0.00,VWS V14.01,2013-01-22 07:40:00,
2013-01-22 02:45:00,19.9,16.9,29.70,NW,309,0.0,1.0,88,0.00,,OVC021,0.00,0.00,VWS V14.01,2013-01-22 07:45:00,
2013-01-22 02:50:00,19.8,16.8,29.70,NW,308,0.0,0.0,88,0.00,,OVC021,0.00,0.00,VWS V14.01,2013-01-22 07:50:00,
2013-01-22 02:55:00,19.5,16.5,29.70,NW,308,0.0,0.0,88,0.00,,OVC021,0.00,0.00,VWS V14.01,2013-01-22 07:55:00,
2013-01-22 03:00:00,19.3,16.3,29.70,NW,309,0.0,0.0,88,0.00,,OVC021,0.00,0.00,VWS V14.01,2013-01-22 08:00:00,
2013-01-22 03:05:00,18.9,15.9,29.70,NW,309,0.0,1.0,88,0.00,,OVC021,0.00,0.00,VWS V14.01,2013-01-22 08:05:00,
2013-01-22 03:10:00,18.6,15.6,29.70,NW,307,0.0,0.0,88,0.00,,OVC021,0.00,0.00,VWS V14.01,2013-01-22 08:10:00,
2013-01-22 03:15:00,18.3,15.6,29.70,NW,309,0.0,0.0,89,0.00,,OVC021,0.00,0.00,VWS V14.01,2013-01-22 08:15:00,
2013-01-22 03:20:00,18.0,15.1,29.69,NW,308,0.0,0.0,88,0.00,,OVC021,0.00,0.00,VWS V14.01,2013-01-22 08:20:00,
2013-01-22 03:25:00,17.9,15.2,29.69,NW,308,0.0,0.0,89,0.00,,OVC021,0.00,0.00,VWS V14.01,2013-01-22 08:25:00,
2013-01-22 03:30:00,17.6,14.9,29.69,NW,308,1.0,2.0,89,0.00,,OVC021,0.00,0.00,VWS V14.01,2013-01-22 08:30:00,
2013-01-22 03:35:00,17.4,14.7,29.69,NW,308,0.0,1.0,89,0.00,,OVC021,0.00,0.00,VWS V14.01,2013-01-22 08:35:00,
2013-01-22 03:40:00,17.1,14.4,29.69,NW,308,1.0,2.0,89,0.00,,OVC021,0.00,0.00,VWS V14.01,2013-01-22 08:40:00,
2013-01-22 03:45:00,17.0,14.3,29.70,NW,309,2.0,2.0,89,0.00,,OVC021,0.00,0.00,VWS V14.01,2013-01-22 08:45:00,
2013-01-22 03:50:00,16.8,14.1,29.70,NW,309,1.0,3.0,89,0.00,,OVC021,0.00,0.00,VWS V14.01,2013-01-22 08:50:00,
2013-01-22 03:55:00,16.7,14.0,29.70,NW,308,1.0,2.0,89,0.00,,OVC021,0.00,0.00,VWS V14.01,2013-01-22 08:55:00,
2013-01-22 04:00:00,16.6,13.9,29.70,NW,309,0.0,2.0,89,0.00,,OVC021,0.00,0.00,VWS V14.01,2013-01-22 09:00:00,
2013-01-22 04:05:00,16.6,14.2,29.70,NW,309,0.0,1.0,90,0.00,,OVC021,0.00,0.00,VWS V14.01,2013-01-22 09:05:00,
2013-01-22 04:10:00,16.5,14.1,29.70,NW,309,0.0,0.0,90,0.00,,OVC021,0.00,0.00,VWS V14.01,2013-01-22 09:10:00,
2013-01-22 04:15:00,16.5,14.1,29.70,NW,308,0.0,0.0,90,0.00,,OVC021,0.00,0.00,VWS V14.01,2013-01-22 09:15:00,
2013-01-22 04:20:00,16.4,14.0,29.70,NW,308,1.0,1.0,90,0.00,,OVC021,0.00,0.00,VWS V14.01,2013-01-22 09:20:00,
2013-01-22 04:25:00,16.7,14.3,29.70,NW,319,3.0,5.0,90,0.00,,OVC021,0.00,0.00,VWS V14.01,2013-01-22 09:25:00,
2013-01-22 04:30:00,17.4,15.2,29.70,NW,304,2.0,7.0,91,0.00,,OVC021,0.00,0.00,VWS V14.01,2013-01-22 09:30:00,
2013-01-22 04:35:00,17.9,15.7,29.70,WNW,298,4.0,5.0,91,0.00,,OVC021,0.00,0.00,VWS V14.01,2013-01-22 09:35:00,
2013-01-22 04:40:00,18.1,15.9,29.70,NW,306,2.0,5.0,91,0.00,,OVC021,0.00,0.00,VWS V14.01,2013-01-22 09:40:00,
2013-01-22 04:45:00,18.1,15.7,29.70,NW,315,1.0,6.0,90,0.00,,OVC021,0.00,0.00,VWS V14.01,2013-01-22 09:45:00,
2013-01-22 04:50:00,18.1,15.7,29.70,WNW,298,1.0,4.0,90,0.00,,OVC021,0.00,0.00,VWS V14.01,2013-01-22 09:50:00,
2013-01-22 04:55:00,18.1,15.7,29.70,NW,325,2.0,4.0,90,0.00,,OVC021,0.00,0.00,VWS V14.01,2013-01-22 09:55:00,
2013-01-22 05:00:00,18.1,15.7,29.70,NW,325,0.0,4.0,90,0.00,,OVC021,0.00,0.00,VWS V14.01,2013-01-22 10:00:00,
2013-01-22 05:05:00,18.1,15.7,29.70,NW,325,1.0,3.0,90,0.00,,OVC021,0.00,0.00,VWS V14.01,2013-01-22 10:05:00,
2013-01-22 05:10:00,18.2,15.8,29.70,NW,318,1.0,3.0,90,0.00,,OVC021,0.00,0.00,VWS V14.01,2013-01-22 10:10:00,
2013-01-22 05:15:00,18.2,15.8,29.70,NW,317,1.0,2.0,90,0.00,,OVC021,0.00,0.00,VWS V14.01,2013-01-22 10:15:00,
2013-01-22 05:20:00,18.2,15.8,29.70,NW,317,1.0,2.0,90,0.00,,OVC021,0.00,0.00,VWS V14.01,2013-01-22 10:20:00,
2013-01-22 05:25:00,18.2,15.8,29.70,NW,319,1.0,2.0,90,0.00,,OVC021,0.00,0.00,VWS V14.01,2013-01-22 10:25:00,
2013-01-22 05:30:00,18.1,15.7,29.71,WNW,298,2.0,4.0,90,0.00,,OVC021,0.00,0.00,VWS V14.01,2013-01-22 10:30:00,
2013-01-22 05:35:00,18.1,15.7,29.71,WNW,298,2.0,4.0,90,0.00,,OVC021,0.00,0.00,VWS V14.01,2013-01-22 10:35:00,
2013-01-22 05:40:00,18.2,15.8,29.71,WNW,297,2.0,4.0,90,0.00,,OVC021,0.00,0.00,VWS V14.01,2013-01-22 10:40:00,
2013-01-22 05:45:00,18.2,15.8,29.72,WNW,301,2.0,4.0,90,0.00,,OVC021,0.00,0.00,VWS V14.01,2013-01-22 10:45:00,
2013-01-22 05:50:00,18.2,15.8,29.72,WNW,301,0.0,2.0,90,0.00,,OVC021,0.00,0.00,VWS V14.01,2013-01-22 10:50:00,
2013-01-22 05:55:00,18.3,15.9,29.72,WNW,302,2.0,4.0,90,0.00,,OVC021,0.00,0.00,VWS V14.01,2013-01-22 10:55:00,
2013-01-22 06:00:00,18.3,15.9,29.72,WNW,289,1.0,4.0,90,0.00,,OVC021,0.00,0.00,VWS V14.01,2013-01-22 11:00:00,
2013-01-22 06:01:00,18.3,15.9,29.72,WNW,288,5.0,5.0,90,0.00,,OVC021,0.00,0.00,VWS V14.01,2013-01-22 11:01:00,
2013-01-22 06:02:00,18.3,15.9,29.72,WNW,288,2.0,5.0,90,0.00,,OVC021,0.00,0.00,VWS V14.01,2013-01-22 11:02:00,
2013-01-22 06:05:00,18.2,15.5,29.72,WNW,290,2.0,5.0,89,0.00,,OVC021,0.00,0.00,VWS V14.01,2013-01-22 11:05:00,
2013-01-22 06:06:00,18.2,15.5,29.72,WNW,290,3.0,4.0,89,0.00,,OVC021,0.00,0.00,VWS V14.01,2013-01-22 11:06:00,
2013-01-22 06:10:00,18.1,15.4,29.72,WNW,288,1.0,4.0,89,0.00,,OVC021,0.00,0.00,VWS V14.01,2013-01-22 11:10:00,
2013-01-22 06:11:00,18.1,15.4,29.72,WNW,290,4.0,6.0,89,0.00,,OVC021,0.00,0.00,VWS V14.01,2013-01-22 11:11:00,
2013-01-22 06:15:00,18.1,15.4,29.72,WNW,292,3.0,6.0,89,0.00,,OVC021,0.00,0.00,VWS V14.01,2013-01-22 11:15:00,
2013-01-22 06:17:00,18.0,15.3,29.72,West,279,1.0,7.0,89,0.00,,OVC021,0.00,0.00,VWS V14.01,2013-01-22 11:17:00,
2013-01-22 06:20:00,18.0,15.3,29.72,West,279,2.0,7.0,89,0.00,,OVC021,0.00,0.00,VWS V14.01,2013-01-22 11:20:00,
2013-01-22 06:22:00,17.9,15.2,29.73,West,281,4.0,5.0,89,0.00,,OVC021,0.00,0.00,VWS V14.01,2013-01-22 11:22:00,
2013-01-22 06:25:00,17.9,15.2,29.73,WNW,288,4.0,6.0,89,0.00,,OVC021,0.00,0.00,VWS V14.01,2013-01-22 11:25:00,
2013-01-22 06:27:00,17.8,14.9,29.73,NW,304,3.0,7.0,88,0.00,,OVC021,0.00,0.00,VWS V14.01,2013-01-22 11:27:00,
2013-01-22 06:30:00,17.9,14.9,29.73,NW,304,1.0,7.0,88,0.00,,OVC021,0.00,0.00,VWS V14.01,2013-01-22 11:30:00,
2013-01-22 06:32:00,17.7,14.8,29.73,WNW,284,1.0,6.0,88,0.00,,OVC021,0.00,0.00,VWS V14.01,2013-01-22 11:32:00,
2013-01-22 06:35:00,17.7,14.8,29.73,WNW,284,2.0,6.0,88,0.00,,OVC021,0.00,0.00,VWS V14.01,2013-01-22 11:35:00,
2013-01-22 06:38:00,17.7,14.8,29.73,WNW,288,1.0,7.0,88,0.00,,OVC021,0.00,0.00,VWS V14.01,2013-01-22 11:38:00,
2013-01-22 06:40:00,17.7,14.8,29.73,WNW,301,5.0,7.0,88,0.00,,OVC021,0.00,0.00,VWS V14.01,2013-01-22 11:40:00,
2013-01-22 06:43:00,17.6,14.4,29.73,West,275,3.0,6.0,87,0.00,,OVC021,0.00,0.00,VWS V14.01,2013-01-22 11:43:00,
2013-01-22 06:45:00,17.6,14.4,29.73,West,281,5.0,6.0,87,0.00,,OVC021,0.00,0.00,VWS V14.01,2013-01-22 11:45:00,
2013-01-22 06:48:00,17.4,14.2,29.74,WNW,292,3.0,6.0,87,0.00,,OVC021,0.00,0.00,VWS V14.01,2013-01-22 11:48:00,
2013-01-22 06:50:00,17.4,14.2,29.74,WNW,288,3.0,6.0,87,0.00,,OVC021,0.00,0.00,VWS V14.01,2013-01-22 11:50:00,
2013-01-22 06:53:00,17.4,14.2,29.74,West,279,3.0,8.0,87,0.00,,OVC021,0.00,0.00,VWS V14.01,2013-01-22 11:53:00,
2013-01-22 06:55:00,17.4,14.2,29.74,West,280,4.0,8.0,87,0.00,,OVC021,0.00,0.00,VWS V14.01,2013-01-22 11:55:00,
2013-01-22 06:58:00,17.4,13.9,29.74,WNW,289,3.0,6.0,86,0.00,,OVC021,0.00,0.00,VWS V14.01,2013-01-22 11:58:00,
2013-01-22 07:00:00,17.4,13.9,29.74,WNW,289,3.0,6.0,86,0.00,,OVC021,0.00,0.00,VWS V14.01,2013-01-22 12:00:00,
2013-01-22 07:03:00,17.3,13.8,29.74,WNW,288,1.0,5.0,86,0.00,,OVC021,0.00,0.00,VWS V14.01,2013-01-22 12:03:00,
2013-01-22 07:05:00,17.3,13.8,29.74,WNW,288,1.0,5.0,86,0.00,,OVC021,0.00,0.00,VWS V14.01,2013-01-22 12:05:00,
2013-01-22 07:08:00,17.2,13.7,29.74,WNW,288,3.0,6.0,86,0.00,,OVC021,0.00,0.00,VWS V14.01,2013-01-22 12:08:00,
2013-01-22 07:10:00,17.2,13.7,29.74,WNW,288,3.0,6.0,86,0.00,,OVC021,0.00,0.00,VWS V14.01,2013-01-22 12:10:00,
2013-01-22 07:13:00,17.2,13.7,29.74,WNW,284,4.0,5.0,86,0.00,,OVC021,0.00,0.00,VWS V14.01,2013-01-22 12:13:00,
2013-01-22 07:15:00,17.2,13.7,29.74,WNW,284,4.0,5.0,86,0.00,,OVC021,0.00,0.00,VWS V14.01,2013-01-22 12:15:00,
2013-01-22 07:18:00,17.2,13.5,29.74,WSW,257,5.0,6.0,85,0.00,,OVC021,0.00,0.00,VWS V14.01,2013-01-22 12:18:00,
2013-01-22 07:20:00,17.2,13.5,29.74,WSW,257,5.0,6.0,85,0.00,,OVC021,0.00,0.00,VWS V14.01,2013-01-22 12:20:00,
2013-01-22 07:23:00,17.2,13.5,29.75,West,279,5.0,6.0,85,0.00,,OVC021,0.00,5.00,VWS V14.01,2013-01-22 12:23:00,
2013-01-22 07:25:00,17.2,13.5,29.75,WNW,288,5.0,8.0,85,0.00,,OVC021,0.00,5.00,VWS V14.01,2013-01-22 12:25:00,
2013-01-22 07:28:00,17.5,13.5,29.75,SW,227,5.0,6.0,84,0.00,,OVC021,0.00,11.00,VWS V14.01,2013-01-22 12:28:00,
2013-01-22 07:30:00,17.5,13.5,29.75,West,263,5.0,10.0,84,0.00,,OVC021,0.00,14.00,VWS V14.01,2013-01-22 12:30:00,
2013-01-22 07:34:00,17.7,13.7,29.75,West,272,6.0,6.0,84,0.00,,OVC021,0.00,26.00,VWS V14.01,2013-01-22 12:34:00,
2013-01-22 07:35:00,17.7,13.7,29.75,West,281,2.0,9.0,84,0.00,,OVC021,0.00,26.00,VWS V14.01,2013-01-22 12:35:00,
2013-01-22 07:39:00,17.9,13.6,29.75,West,259,8.0,8.0,83,0.00,,OVC021,0.00,33.00,VWS V14.01,2013-01-22 12:39:00,
2013-01-22 07:40:00,17.9,13.6,29.75,WNW,288,3.0,7.0,83,0.00,,OVC021,0.00,32.00,VWS V14.01,2013-01-22 12:40:00,
2013-01-22 07:44:00,18.1,13.5,29.75,WNW,282,4.0,4.0,82,0.00,,OVC021,0.00,39.00,VWS V14.01,2013-01-22 12:44:00,
2013-01-22 07:45:00,18.1,13.5,29.75,WNW,296,4.0,10.0,82,0.00,,OVC021,0.00,37.00,VWS V14.01,2013-01-22 12:45:00,
2013-01-22 07:49:00,18.3,13.7,29.75,West,268,3.0,8.0,82,0.00,,OVC021,0.00,44.00,VWS V14.01,2013-01-22 12:49:00,
2013-01-22 07:50:00,18.2,13.6,29.75,West,270,7.0,9.0,82,0.00,,OVC021,0.00,42.00,VWS V14.01,2013-01-22 12:50:00,
2013-01-22 07:54:00,18.4,13.6,29.76,WNW,286,11.0,11.0,81,0.00,,OVC021,0.00,49.00,VWS V14.01,2013-01-22 12:54:00,
2013-01-22 07:55:00,18.4,13.6,29.75,West,268,5.0,9.0,81,0.00,,OVC021,0.00,47.00,VWS V14.01,2013-01-22 12:55:00,
2013-01-22 07:59:00,18.5,13.4,29.76,WNW,294,10.0,13.0,80,0.00,,OVC021,0.00,47.00,VWS V14.01,2013-01-22 12:59:00,
2013-01-22 08:00:00,18.5,13.6,29.76,West,274,6.0,12.0,81,0.00,,OVC021,0.00,49.00,VWS V14.01,2013-01-22 13:00:00,
2013-01-22 08:05:00,18.6,13.2,29.76,WNW,299,10.0,13.0,79,0.00,,OVC021,0.00,51.00,VWS V14.01,2013-01-22 13:05:00,
2013-01-22 08:10:00,18.6,12.9,29.76,NW,304,15.0,15.0,78,0.00,,OVC021,0.00,58.00,VWS V14.01,2013-01-22 13:10:00,
2013-01-22 08:15:00,18.7,13.0,29.76,WNW,284,8.0,8.0,78,0.00,,OVC021,0.00,63.00,VWS V14.01,2013-01-22 13:15:00,
2013-01-22 08:20:00,18.8,12.8,29.76,WNW,294,4.0,12.0,77,0.00,,OVC021,0.00,63.00,VWS V14.01,2013-01-22 13:20:00,
2013-01-22 08:25:00,18.8,12.5,29.76,WNW,283,8.0,12.0,76,0.00,,OVC021,0.00,72.00,VWS V14.01,2013-01-22 13:25:00,
2013-01-22 08:30:00,18.9,12.6,29.76,West,272,7.0,12.0,76,0.00,,OVC021,0.00,76.00,VWS V14.01,2013-01-22 13:30:00,
2013-01-22 08:31:00,18.9,12.6,29.77,West,279,11.0,14.0,76,0.00,,OVC021,0.00,77.00,VWS V14.01,2013-01-22 13:31:00,
2013-01-22 08:35:00,19.0,12.7,29.77,WNW,301,4.0,14.0,76,0.00,,OVC021,0.00,81.00,VWS V14.01,2013-01-22 13:35:00,
2013-01-22 08:36:00,19.0,12.4,29.77,WSW,254,8.0,13.0,75,0.00,,OVC021,0.00,86.00,VWS V14.01,2013-01-22 13:36:00,
2013-01-22 08:40:00,19.0,12.4,29.77,WNW,303,8.0,13.0,75,0.00,,OVC021,0.00,90.00,VWS V14.01,2013-01-22 13:40:00,
2013-01-22 08:41:00,19.1,12.2,29.77,WNW,291,10.0,10.0,74,0.00,,OVC021,0.00,98.00,VWS V14.01,2013-01-22 13:41:00,
2013-01-22 08:45:00,19.2,12.3,29.77,West,270,12.0,14.0,74,0.00,,OVC021,0.00,104.00,VWS V14.01,2013-01-22 13:45:00,
2013-01-22 08:47:00,19.3,12.4,29.77,WNW,288,7.0,12.0,74,0.00,,OVC021,0.00,113.00,VWS V14.01,2013-01-22 13:47:00,
2013-01-22 08:50:00,19.3,12.1,29.78,NW,319,10.0,15.0,73,0.00,,OVC021,0.00,118.00,VWS V14.01,2013-01-22 13:50:00,
2013-01-22 08:52:00,19.4,12.2,29.78,WNW,288,6.0,12.0,73,0.00,,OVC021,0.00,128.00,VWS V14.01,2013-01-22 13:52:00,
2013-01-22 08:55:00,19.4,12.2,29.78,NW,317,11.0,14.0,73,0.00,,OVC021,0.00,132.00,VWS V14.01,2013-01-22 13:55:00,
2013-01-22 08:57:00,19.5,12.3,29.78,West,266,8.0,11.0,73,0.00,,OVC021,0.00,144.00,VWS V14.01,2013-01-22 13:57:00,
2013-01-22 09:00:00,19.6,12.4,29.78,NW,314,16.0,17.0,73,0.00,,OVC021,0.00,148.00,VWS V14.01,2013-01-22 14:00:00,
2013-01-22 09:02:00,19.7,11.8,29.78,WNW,284,8.0,16.0,71,0.00,,OVC021,0.00,156.00,VWS V14.01,2013-01-22 14:02:00,
2013-01-22 09:05:00,19.7,11.5,29.78,WNW,296,6.0,16.0,70,0.00,,OVC021,0.00,158.00,VWS V14.01,2013-01-22 14:05:00,
2013-01-22 09:07:00,19.9,11.7,29.78,WNW,300,10.0,16.0,70,0.00,,OVC021,0.00,163.00,VWS V14.01,2013-01-22 14:07:00,
2013-01-22 09:10:00,19.9,11.7,29.78,NW,323,5.0,16.0,70,0.00,,OVC021,0.00,167.00,VWS V14.01,2013-01-22 14:10:00,
2013-01-22 09:12:00,20.0,11.5,29.78,West,275,10.0,19.0,69,0.00,,OVC021,0.00,178.00,VWS V14.01,2013-01-22 14:12:00,
2013-01-22 09:15:00,20.0,11.1,29.78,West,281,4.0,19.0,68,0.00,,OVC021,0.00,178.00,VWS V14.01,2013-01-22 14:15:00,
2013-01-22 09:18:00,20.1,11.2,29.78,NW,308,10.0,15.0,68,0.00,,OVC021,0.00,455.00,VWS V14.01,2013-01-22 14:18:00,
2013-01-22 09:20:00,20.1,10.9,29.78,West,278,10.0,15.0,67,0.00,,OVC021,0.00,455.00,VWS V14.01,2013-01-22 14:20:00,
2013-01-22 09:23:00,20.2,11.0,29.78,West,265,10.0,15.0,67,0.00,,OVC021,0.00,457.00,VWS V14.01,2013-01-22 14:23:00,
2013-01-22 09:25:00,20.2,10.7,29.78,WNW,284,5.0,15.0,66,0.00,,OVC021,0.00,457.00,VWS V14.01,2013-01-22 14:25:00,
2013-01-22 09:28:00,20.3,10.4,29.78,North,5,16.0,16.0,65,0.00,,OVC021,0.00,345.00,VWS V14.01,2013-01-22 14:28:00,
2013-01-22 09:30:00,20.4,10.5,29.78,NW,315,17.0,18.0,65,0.00,,OVC021,0.00,345.00,VWS V14.01,2013-01-22 14:30:00,
2013-01-22 09:33:00,20.7,10.5,29.78,NW,314,14.0,17.0,64,0.00,,OVC021,0.00,346.00,VWS V14.01,2013-01-22 14:33:00,
2013-01-22 09:35:00,20.7,10.5,29.78,NW,317,13.0,17.0,64,0.00,,OVC021,0.00,346.00,VWS V14.01,2013-01-22 14:35:00,
2013-01-22 09:38:00,20.9,10.3,29.78,NW,326,16.0,16.0,63,0.00,,OVC021,0.00,355.00,VWS V14.01,2013-01-22 14:38:00,
2013-01-22 09:40:00,20.9,10.3,29.78,NW,326,16.0,16.0,63,0.00,,OVC021,0.00,355.00,VWS V14.01,2013-01-22 14:40:00,
2013-01-22 09:43:00,20.9,9.6,29.78,North,350,9.0,17.0,61,0.00,,OVC021,0.00,360.00,VWS V14.01,2013-01-22 14:43:00,
2013-01-22 09:45:00,20.9,9.6,29.78,North,350,9.0,17.0,61,0.00,,OVC021,0.00,360.00,VWS V14.01,2013-01-22 14:45:00,
2013-01-22 09:48:00,21.0,9.3,29.79,WNW,288,8.0,15.0,60,0.00,,OVC021,0.00,371.00,VWS V14.01,2013-01-22 14:48:00,
2013-01-22 09:50:00,21.0,9.3,29.79,WNW,288,8.0,15.0,60,0.00,,OVC021,0.00,371.00,VWS V14.01,2013-01-22 14:50:00,
2013-01-22 09:53:00,21.0,9.3,29.79,NNW,340,9.0,10.0,60,0.00,,OVC021,0.00,385.00,VWS V14.01,2013-01-22 14:53:00,
2013-01-22 09:55:00,21.0,9.3,29.79,NW,313,10.0,19.0,60,0.00,,OVC021,0.00,385.00,VWS V14.01,2013-01-22 14:55:00,
2013-01-22 09:58:00,21.2,9.1,29.79,NW,307,14.0,14.0,59,0.00,,OVC021,0.00,399.00,VWS V14.01,2013-01-22 14:58:00,
2013-01-22 10:00:00,21.2,9.1,29.79,NW,316,10.0,19.0,59,0.00,,OVC021,0.00,399.00,VWS V14.01,2013-01-22 15:00:00,
2013-01-22 10:03:00,21.1,8.6,29.79,WNW,293,3.0,5.0,58,0.00,,OVC021,0.00,424.00,VWS V14.01,2013-01-22 15:03:00,
2013-01-22 10:05:00,21.2,8.7,29.79,WNW,299,5.0,16.0,58,0.00,,OVC021,0.00,424.00,VWS V14.01,2013-01-22 15:05:00,
2013-01-22 10:09:00,21.3,8.4,29.79,NW,319,6.0,10.0,57,0.00,,OVC021,0.00,373.00,VWS V14.01,2013-01-22 15:09:00,
2013-01-22 10:10:00,21.3,9.2,29.79,North,351,8.0,17.0,59,0.00,,OVC021,0.00,373.00,VWS V14.01,2013-01-22 15:10:00,
2013-01-22 10:14:00,21.5,9.8,29.79,West,272,7.0,10.0,60,0.00,,OVC021,0.00,457.00,VWS V14.01,2013-01-22 15:14:00,
2013-01-22 10:15:00,21.4,9.7,29.80,West,271,7.0,13.0,60,0.00,,OVC021,0.00,457.00,VWS V14.01,2013-01-22 15:15:00,
2013-01-22 10:19:00,21.5,9.0,29.80,West,261,6.0,14.0,58,0.00,,OVC021,0.00,114.00,VWS V14.01,2013-01-22 15:19:00,
2013-01-22 10:20:00,21.6,10.2,29.80,NNW,339,14.0,16.0,61,0.00,,OVC021,0.00,114.00,VWS V14.01,2013-01-22 15:20:00,
2013-01-22 10:24:00,21.4,9.3,29.80,West,270,6.0,12.0,59,0.00,,OVC021,0.00,459.00,VWS V14.01,2013-01-22 15:24:00,
2013-01-22 10:25:00,21.5,9.4,29.80,SW,225,9.0,18.0,59,0.00,,OVC021,0.00,459.00,VWS V14.01,2013-01-22 15:25:00,
2013-01-22 10:29:00,21.4,9.3,29.80,WNW,292,8.0,12.0,59,0.00,,OVC021,0.00,469.00,VWS V14.01,2013-01-22 15:29:00,
2013-01-22 10:30:00,21.3,8.8,29.80,WNW,293,8.0,16.0,58,0.00,,OVC021,0.00,431.00,VWS V14.01,2013-01-22 15:30:00,
2013-01-22 10:35:00,21.7,9.2,29.80,West,266,11.0,11.0,58,0.00,,OVC021,0.00,480.00,VWS V14.01,2013-01-22 15:35:00,
2013-01-22 10:40:00,21.8,8.5,29.80,West,268,6.0,11.0,56,0.00,,OVC021,0.00,424.00,VWS V14.01,2013-01-22 15:40:00,
2013-01-22 10:45:00,22.0,8.3,29.80,WNW,296,12.0,18.0,55,0.00,,OVC021,0.00,522.00,VWS V14.01,2013-01-22 15:45:00,
2013-01-22 10:50:00,21.8,8.1,29.80,WNW,293,9.0,17.0,55,0.00,,OVC021,0.00,540.00,VWS V14.01,2013-01-22 15:50:00,
2013-01-22 10:55:00,21.7,8.0,29.80,WNW,286,10.0,15.0,55,0.00,,OVC021,0.00,529.00,VWS V14.01,2013-01-22 15:55:00,
2013-01-22 11:00:00,21.4,7.8,29.79,West,274,9.0,16.0,55,0.00,,OVC021,0.00,499.00,VWS V14.01,2013-01-22 16:00:00,
2013-01-22 11:05:00,21.4,7.8,29.79,West,273,7.0,16.0,55,0.00,,OVC021,0.00,330.00,VWS V14.01,2013-01-22 16:05:00,
2013-01-22 11:06:00,21.3,7.3,29.79,West,273,13.0,16.0,54,0.00,,OVC021,0.00,330.00,VWS V14.01,2013-01-22 16:06:00,
2013-01-22 11:10:00,21.3,7.3,29.79,NW,313,8.0,20.0,54,0.00,,OVC021,0.00,508.00,VWS V14.01,2013-01-22 16:10:00,
2013-01-22 11:11:00,21.3,8.1,29.79,WNW,288,14.0,16.0,56,0.00,,OVC021,0.00,475.00,VWS V14.01,2013-01-22 16:11:00,
2013-01-22 11:15:00,21.4,7.8,29.79,WNW,295,17.0,17.0,55,0.00,,OVC021,0.00,485.00,VWS V14.01,2013-01-22 16:15:00,
2013-01-22 11:16:00,21.3,7.3,29.79,West,279,11.0,20.0,54,0.00,,OVC021,0.00,471.00,VWS V14.01,2013-01-22 16:16:00,
2013-01-22 11:20:00,21.0,7.0,29.79,West,271,11.0,20.0,54,0.00,,OVC021,0.00,84.00,VWS V14.01,2013-01-22 16:20:00,
2013-01-22 11:22:00,20.6,6.6,29.79,NW,309,8.0,15.0,54,0.00,,OVC021,0.00,84.00,VWS V14.01,2013-01-22 16:22:00,
2013-01-22 11:25:00,20.5,6.9,29.79,WNW,298,9.0,15.0,55,0.00,,OVC021,0.00,84.00,VWS V14.01,2013-01-22 16:25:00,
2013-01-22 11:27:00,20.4,6.8,29.79,WNW,284,7.0,15.0,55,0.00,,OVC021,0.00,72.00,VWS V14.01,2013-01-22 16:27:00,
2013-01-22 11:30:00,20.4,7.2,29.79,WNW,284,7.0,15.0,56,0.00,,OVC021,0.00,72.00,VWS V14.01,2013-01-22 16:30:00,
2013-01-22 11:32:00,20.2,6.6,29.79,WNW,289,11.0,14.0,55,0.00,,OVC021,0.00,102.00,VWS V14.01,2013-01-22 16:32:00,
2013-01-22 11:35:00,20.3,6.7,29.79,West,266,11.0,14.0,55,0.00,,OVC021,0.00,510.00,VWS V14.01,2013-01-22 16:35:00,
2013-01-22 11:37:00,20.6,6.6,29.79,WNW,299,11.0,19.0,54,0.00,,OVC021,0.00,513.00,VWS V14.01,2013-01-22 16:37:00,
2013-01-22 11:40:00,20.6,7.0,29.79,WSW,244,15.0,19.0,55,0.00,,OVC021,0.00,513.00,VWS V14.01,2013-01-22 16:40:00,
2013-01-22 11:42:00,20.7,6.7,29.79,West,271,12.0,18.0,54,0.00,,OVC021,0.00,97.00,VWS V14.01,2013-01-22 16:42:00,
2013-01-22 11:45:00,20.7,6.7,29.79,NW,304,9.0,18.0,54,0.00,,OVC021,0.00,97.00,VWS V14.01,2013-01-22 16:45:00,
2013-01-22 11:48:00,20.4,6.0,29.79,WNW,285,10.0,16.0,53,0.00,,OVC021,0.00,107.00,VWS V14.01,2013-01-22 16:48:00,
2013-01-22 11:50:00,20.3,5.9,29.79,NW,311,15.0,19.0,53,0.00,,OVC021,0.00,113.00,VWS V14.01,2013-01-22 16:50:00,
2013-01-22 11:53:00,20.1,5.7,29.79,NW,321,7.0,17.0,53,0.00,,OVC021,0.00,156.00,VWS V14.01,2013-01-22 16:53:00,
2013-01-22 11:55:00,20.2,5.8,29.79,WNW,300,8.0,17.0,53,0.00,,OVC021,0.00,156.00,VWS V14.01,2013-01-22 16:55:00,
2013-01-22 11:58:00,20.4,6.0,29.79,NNW,331,11.0,19.0,53,0.00,,OVC021,0.00,526.00,VWS V14.01,2013-01-22 16:58:00,
2013-01-22 12:00:00,20.5,6.1,29.79,NW,320,11.0,19.0,53,0.00,,OVC021,0.00,533.00,VWS V14.01,2013-01-22 17:00:00,
2013-01-22 12:03:00,21.0,6.6,29.79,NW,308,8.0,15.0,53,0.00,,OVC021,0.00,517.00,VWS V14.01,2013-01-22 17:03:00,
2013-01-22 12:05:00,21.0,6.6,29.79,NNW,338,10.0,15.0,53,0.00,,OVC021,0.00,517.00,VWS V14.01,2013-01-22 17:05:00,
2013-01-22 12:08:00,20.7,4.6,29.79,WNW,298,17.0,17.0,49,0.00,,OVC021,0.00,571.00,VWS V14.01,2013-01-22 17:08:00,
2013-01-22 12:10:00,20.8,4.7,29.79,NW,317,15.0,20.0,49,0.00,,OVC021,0.00,571.00,VWS V14.01,2013-01-22 17:10:00,
2013-01-22 12:13:00,20.8,5.5,29.79,NW,305,10.0,12.0,51,0.00,,OVC021,0.00,617.00,VWS V14.01,2013-01-22 17:13:00,
2013-01-22 12:15:00,20.8,5.5,29.79,WNW,293,8.0,19.0,51,0.00,,OVC021,0.00,617.00,VWS V14.01,2013-01-22 17:15:00,
2013-01-22 12:18:00,21.3,6.0,29.78,NW,318,9.0,9.0,51,0.00,,OVC021,0.00,638.00,VWS V14.01,2013-01-22 17:18:00,
2013-01-22 12:20:00,21.3,5.1,29.79,NW,304,9.0,15.0,49,0.00,,OVC021,0.00,638.00,VWS V14.01,2013-01-22 17:20:00,
2013-01-22 12:23:00,21.8,5.1,29.78,NW,309,13.0,14.0,48,0.00,,OVC021,0.00,571.00,VWS V14.01,2013-01-22 17:23:00,
2013-01-22 12:25:00,21.9,5.2,29.78,WNW,287,13.0,18.0,48,0.00,,OVC021,0.00,571.00,VWS V14.01,2013-01-22 17:25:00,
2013-01-22 12:29:00,22.0,5.3,29.78,North,350,7.0,11.0,48,0.00,,OVC021,0.00,577.00,VWS V14.01,2013-01-22 17:29:00,
2013-01-22 12:30:00,22.1,5.4,29.78,NNW,329,6.0,16.0,48,0.00,,OVC021,0.00,577.00,VWS V14.01,2013-01-22 17:30:00,
2013-01-22 12:34:00,22.1,5.4,29.78,WNW,286,6.0,8.0,48,0.00,,OVC021,0.00,156.00,VWS V14.01,2013-01-22 17:34:00,
2013-01-22 12:35:00,22.1,5.9,29.78,NW,313,7.0,17.0,49,0.00,,OVC021,0.00,156.00,VWS V14.01,2013-01-22 17:35:00,
2013-01-22 12:39:00,21.5,3.9,29.78,NW,325,8.0,11.0,46,0.00,,OVC021,0.00,178.00,VWS V14.01,2013-01-22 17:39:00,
2013-01-22 12:40:00,21.6,4.0,29.78,West,271,9.0,17.0,46,0.00,,OVC021,0.00,114.00,VWS V14.01,2013-01-22 17:40:00,
2013-01-22 12:44:00,21.1,4.0,29.78,NW,323,11.0,15.0,47,0.00,,OVC021,0.00,125.00,VWS V14.01,2013-01-22 17:44:00,
2013-01-22 12:45:00,21.2,4.1,29.78,NW,314,11.0,16.0,47,0.00,,OVC021,0.00,120.00,VWS V14.01,2013-01-22 17:45:00,
2013-01-22 12:49:00,21.4,4.3,29.78,NNW,340,6.0,10.0,47,0.00,,OVC021,0.00,287.00,VWS V14.01,2013-01-22 17:49:00,
2013-01-22 12:50:00,21.3,3.3,29.78,WNW,295,8.0,15.0,45,0.00,,OVC021,0.00,309.00,VWS V14.01,2013-01-22 17:50:00,
2013-01-22 12:54:00,22.2,5.1,29.78,WSW,250,7.0,11.0,47,0.00,,OVC021,0.00,197.00,VWS V14.01,2013-01-22 17:54:00,
2013-01-22 12:55:00,22.0,4.9,29.78,West,269,7.0,19.0,47,0.00,,OVC021,0.00,204.00,VWS V14.01,2013-01-22 17:55:00,
2013-01-22 13:00:00,22.5,4.9,29.78,West,270,10.0,11.0,46,0.00,,OVC021,0.00,192.00,VWS V14.01,2013-01-22 18:00:00,
2013-01-22 13:05:00,22.5,4.9,29.78,North,9,11.0,17.0,46,0.00,,OVC021,0.00,171.00,VWS V14.01,2013-01-22 18:05:00,
2013-01-22 13:10:00,22.6,4.9,29.79,West,269,14.0,16.0,46,0.00,,OVC021,0.00,202.00,VWS V14.01,2013-01-22 18:10:00,
2013-01-22 13:15:00,22.4,3.8,29.78,SSW,208,11.0,16.0,44,0.00,,OVC021,0.00,214.00,VWS V14.01,2013-01-22 18:15:00,
2013-01-22 13:20:00,22.1,3.0,29.78,West,271,8.0,21.0,43,0.00,,OVC021,0.00,220.00,VWS V14.01,2013-01-22 18:20:00,
2013-01-22 13:25:00,21.9,2.3,29.79,WNW,287,13.0,22.0,42,0.00,,OVC021,0.00,202.00,VWS V14.01,2013-01-22 18:25:00,
2013-01-22 13:30:00,22.0,3.4,29.79,WNW,299,18.0,18.0,44,0.00,,OVC021,0.00,188.00,VWS V14.01,2013-01-22 18:30:00,
2013-01-22 13:35:00,21.8,3.2,29.79,West,261,13.0,21.0,44,0.00,,OVC021,0.00,160.00,VWS V14.01,2013-01-22 18:35:00,
2013-01-22 13:36:00,21.7,3.2,29.79,NW,319,6.0,16.0,44,0.00,,OVC021,0.00,148.00,VWS V14.01,2013-01-22 18:36:00,
2013-01-22 13:40:00,21.7,4.1,29.79,NW,316,9.0,17.0,46,0.00,,OVC021,0.00,139.00,VWS V14.01,2013-01-22 18:40:00,
2013-01-22 13:41:00,21.4,3.8,29.79,NW,315,13.0,16.0,46,0.00,,OVC021,0.00,134.00,VWS V14.01,2013-01-22 18:41:00,
2013-01-22 13:45:00,21.1,3.6,29.79,WNW,291,14.0,16.0,46,0.00,,OVC021,0.00,121.00,VWS V14.01,2013-01-22 18:45:00,
2013-01-22 13:46:00,20.8,3.3,29.79,NNW,343,10.0,20.0,46,0.00,,OVC021,0.00,100.00,VWS V14.01,2013-01-22 18:46:00,
2013-01-22 13:50:00,20.7,3.2,29.80,NNW,327,13.0,20.0,46,0.00,,OVC021,0.00,95.00,VWS V14.01,2013-01-22 18:50:00,
2013-01-22 13:52:00,20.6,2.2,29.80,NNW,336,15.0,16.0,44,0.00,,OVC021,0.00,104.00,VWS V14.01,2013-01-22 18:52:00,
2013-01-22 13:55:00,20.5,2.1,29.80,NW,321,15.0,20.0,44,0.00,,OVC021,0.00,107.00,VWS V14.01,2013-01-22 18:55:00,
2013-01-22 13:57:00,20.4,2.0,29.80,NW,311,11.0,20.0,44,0.00,,OVC021,0.00,88.00,VWS V14.01,2013-01-22 18:57:00,
2013-01-22 14:00:00,20.4,2.9,29.80,NNW,346,5.0,20.0,46,0.00,,OVC021,0.00,86.00,VWS V14.01,2013-01-22 19:00:00,
2013-01-22 14:02:00,20.4,2.5,29.80,WNW,292,11.0,18.0,45,0.00,,OVC021,0.00,83.00,VWS V14.01,2013-01-22 19:02:00,
2013-01-22 14:05:00,20.4,2.0,29.80,NW,313,10.0,18.0,44,0.00,,OVC021,0.00,88.00,VWS V14.01,2013-01-22 19:05:00,
2013-01-22 14:07:00,20.3,2.4,29.81,WNW,296,6.0,17.0,45,0.00,,OVC021,0.00,114.00,VWS V14.01,2013-01-22 19:07:00,
2013-01-22 14:10:00,20.3,2.4,29.81,NW,325,8.0,17.0,45,0.00,,OVC021,0.00,116.00,VWS V14.01,2013-01-22 19:10:00,
2013-01-22 14:12:00,20.4,2.0,29.81,NW,315,10.0,17.0,44,0.00,,OVC021,0.00,130.00,VWS V14.01,2013-01-22 19:12:00,
2013-01-22 14:15:00,20.3,1.9,29.81,NW,314,7.0,17.0,44,0.00,,OVC021,0.00,134.00,VWS V14.01,2013-01-22 19:15:00,
2013-01-22 14:18:00,20.4,2.5,29.81,WNW,287,7.0,12.0,45,0.00,,OVC021,0.00,139.00,VWS V14.01,2013-01-22 19:18:00,
2013-01-22 14:20:00,20.4,2.0,29.81,NW,309,7.0,12.0,44,0.00,,OVC021,0.00,135.00,VWS V14.01,2013-01-22 19:20:00,
2013-01-22 14:23:00,20.5,2.1,29.81,West,277,8.0,16.0,44,0.00,,OVC021,0.00,134.00,VWS V14.01,2013-01-22 19:23:00,
2013-01-22 14:25:00,20.5,1.6,29.81,NW,309,10.0,16.0,43,0.00,,OVC021,0.00,134.00,VWS V14.01,2013-01-22 19:25:00,
2013-01-22 14:28:00,20.6,2.2,29.81,NNW,328,9.0,13.0,44,0.00,,OVC021,0.00,120.00,VWS V14.01,2013-01-22 19:28:00,
2013-01-22 14:30:00,20.6,2.2,29.81,NNW,329,9.0,13.0,44,0.00,,OVC021,0.00,120.00,VWS V14.01,2013-01-22 19:30:00,
2013-01-22 14:33:00,20.8,2.8,29.82,WNW,292,3.0,14.0,45,0.00,,OVC021,0.00,121.00,VWS V14.01,2013-01-22 19:33:00,
2013-01-22 14:35:00,20.8,2.8,29.82,WNW,292,3.0,14.0,45,0.00,,OVC021,0.00,121.00,VWS V14.01,2013-01-22 19:35:00,
2013-01-22 14:38:00,21.0,1.0,29.82,NW,307,8.0,18.0,41,0.00,,OVC021,0.00,125.00,VWS V14.01,2013-01-22 19:38:00,
2013-01-22 14:40:00,21.0,1.0,29.82,NW,308,9.0,18.0,41,0.00,,OVC021,0.00,125.00,VWS V14.01,2013-01-22 19:40:00,
2013-01-22 14:43:00,21.3,1.8,29.82,WNW,286,5.0,10.0,42,0.00,,OVC021,0.00,134.00,VWS V14.01,2013-01-22 19:43:00,
2013-01-22 14:45:00,21.3,1.8,29.82,WNW,286,5.0,10.0,42,0.00,,OVC021,0.00,134.00,VWS V14.01,2013-01-22 19:45:00,
2013-01-22 14:48:00,21.1,1.1,29.82,West,261,6.0,13.0,41,0.00,,OVC021,0.00,98.00,VWS V14.01,2013-01-22 19:48:00,
2013-01-22 14:50:00,21.1,1.1,29.82,West,261,6.0,13.0,41,0.00,,OVC021,0.00,98.00,VWS V14.01,2013-01-22 19:50:00,
2013-01-22 14:53:00,20.7,0.7,29.83,West,278,8.0,19.0,41,0.00,,OVC021,0.00,81.00,VWS V14.01,2013-01-22 19:53:00,
2013-01-22 14:55:00,20.7,0.7,29.83,West,278,8.0,19.0,41,0.00,,OVC021,0.00,81.00,VWS V14.01,2013-01-22 19:55:00,
2013-01-22 14:58:00,20.6,0.6,29.83,West,279,13.0,20.0,41,0.00,,OVC021,0.00,79.00,VWS V14.01,2013-01-22 19:58:00,
2013-01-22 15:00:00,20.6,0.6,29.83,West,279,13.0,20.0,41,0.00,,OVC021,0.00,79.00,VWS V14.01,2013-01-22 20:00:00,
2013-01-22 15:03:00,20.3,-0.2,29.83,WNW,296,10.0,17.0,40,0.00,,OVC021,0.00,81.00,VWS V14.01,2013-01-22 20:03:00,
2013-01-22 15:05:00,20.3,-0.2,29.83,WNW,296,10.0,17.0,40,0.00,,OVC021,0.00,81.00,VWS V14.01,2013-01-22 20:05:00,
2013-01-22 15:08:00,20.4,0.5,29.83,WNW,297,11.0,16.0,41,0.00,,OVC021,0.00,98.00,VWS V14.01,2013-01-22 20:08:00,
2013-01-22 15:10:00,20.4,0.5,29.83,WNW,297,11.0,16.0,41,0.00,,OVC021,0.00,98.00,VWS V14.01,2013-01-22 20:10:00,
2013-01-22 15:13:00,20.7,0.7,29.83,WNW,290,13.0,13.0,41,0.00,,OVC021,0.00,102.00,VWS V14.01,2013-01-22 20:13:00,
2013-01-22 15:15:00,20.7,0.7,29.83,WNW,294,6.0,19.0,41,0.00,,OVC021,0.00,102.00,VWS V14.01,2013-01-22 20:15:00,
2013-01-22 15:19:00,20.9,0.9,29.83,WSW,248,12.0,12.0,41,0.00,,OVC021,0.00,197.00,VWS V14.01,2013-01-22 20:19:00,
2013-01-22 15:20:00,20.8,0.3,29.83,West,267,7.0,18.0,40,0.00,,OVC021,0.00,197.00,VWS V14.01,2013-01-22 20:20:00,
2013-01-22 15:23:00,21.1,0.6,29.83,West,263,15.0,16.0,40,0.00,,OVC021,0.00,162.00,VWS V14.01,2013-01-22 20:23:00,
2013-01-22 15:25:00,21.1,0.6,29.83,West,269,13.0,18.0,40,0.00,,OVC021,0.00,162.00,VWS V14.01,2013-01-22 20:25:00,
2013-01-22 15:29:00,21.1,0.6,29.83,NW,311,14.0,15.0,40,0.00,,OVC021,0.00,134.00,VWS V14.01,2013-01-22 20:29:00,
2013-01-22 15:30:00,21.2,0.7,29.83,WNW,297,7.0,21.0,40,0.00,,OVC021,0.00,132.00,VWS V14.01,2013-01-22 20:30:00,
2013-01-22 15:34:00,21.3,0.2,29.84,WNW,286,15.0,17.0,39,0.00,,OVC021,0.00,120.00,VWS V14.01,2013-01-22 20:34:00,
2013-01-22 15:35:00,21.4,0.8,29.84,WNW,292,15.0,16.0,40,0.00,,OVC021,0.00,127.00,VWS V14.01,2013-01-22 20:35:00,
2013-01-22 15:39:00,21.0,-0.1,29.84,West,269,8.0,13.0,39,0.00,,OVC021,0.00,114.00,VWS V14.01,2013-01-22 20:39:00,
2013-01-22 15:40:00,21.0,-0.1,29.84,West,278,10.0,19.0,39,0.00,,OVC021,0.00,113.00,VWS V14.01,2013-01-22 20:40:00,
2013-01-22 15:44:00,20.8,-0.8,29.84,WNW,284,12.0,12.0,38,0.00,,OVC021,0.00,93.00,VWS V14.01,2013-01-22 20:44:00,
2013-01-22 15:45:00,20.9,-0.7,29.84,West,273,8.0,19.0,38,0.00,,OVC021,0.00,102.00,VWS V14.01,2013-01-22 20:45:00,
2013-01-22 15:49:00,20.6,-1.5,29.85,WNW,300,8.0,16.0,37,0.00,,OVC021,0.00,76.00,VWS V14.01,2013-01-22 20:49:00,
2013-01-22 15:50:00,20.7,-1.4,29.85,NW,319,16.0,18.0,37,0.00,,OVC021,0.00,77.00,VWS V14.01,2013-01-22 20:50:00,
2013-01-22 15:54:00,20.4,-1.1,29.85,West,281,13.0,13.0,38,0.00,,OVC021,0.00,67.00,VWS V14.01,2013-01-22 20:54:00,
2013-01-22 15:55:00,20.4,-1.1,29.85,WNW,286,10.0,16.0,38,0.00,,OVC021,0.00,70.00,VWS V14.01,2013-01-22 20:55:00,
2013-01-22 15:59:00,20.2,-1.3,29.85,West,275,7.0,8.0,38,0.00,,OVC021,0.00,54.00,VWS V14.01,2013-01-22 20:59:00,
2013-01-22 16:00:00,20.2,-1.3,29.85,NW,311,6.0,16.0,38,0.00,,OVC021,0.00,39.00,VWS V14.01,2013-01-22 21:00:00,
2013-01-22 16:04:00,20.2,-0.8,29.85,NW,308,8.0,10.0,39,0.00,,OVC021,0.00,42.00,VWS V14.01,2013-01-22 21:04:00,
2013-01-22 16:05:00,20.2,-0.8,29.85,WNW,300,5.0,14.0,39,0.00,,OVC021,0.00,47.00,VWS V14.01,2013-01-22 21:05:00,
2013-01-22 16:09:00,20.1,-1.4,29.85,WNW,282,5.0,12.0,38,0.00,,OVC021,0.00,35.00,VWS V14.01,2013-01-22 21:09:00,
2013-01-22 16:10:00,20.2,-1.3,29.86,NW,321,11.0,21.0,38,0.00,,OVC021,0.00,37.00,VWS V14.01,2013-01-22 21:10:00,
2013-01-22 16:15:00,19.9,-1.0,29.86,WNW,287,13.0,13.0,39,0.00,,OVC021,0.00,26.00,VWS V14.01,2013-01-22 21:15:00,
2013-01-22 16:20:00,19.7,-0.7,29.86,NW,323,15.0,16.0,40,0.00,,OVC021,0.00,16.00,VWS V14.01,2013-01-22 21:20:00,
2013-01-22 16:25:00,19.4,-1.0,29.86,NNW,338,8.0,19.0,40,0.00,,OVC021,0.00,12.00,VWS V14.01,2013-01-22 21:25:00,
2013-01-22 16:30:00,19.1,-0.7,29.86,NNW,327,5.0,16.0,41,0.00,,OVC021,0.00,11.00,VWS V14.01,2013-01-22 21:30:00,
2013-01-22 16:35:00,19.0,-0.3,29.87,WNW,298,3.0,12.0,42,0.00,,OVC021,0.00,9.00,VWS V14.01,2013-01-22 21:35:00,
2013-01-22 16:40:00,18.8,-0.5,29.87,NW,325,5.0,13.0,42,0.00,,OVC021,0.00,5.00,VWS V14.01,2013-01-22 21:40:00,
2013-01-22 16:45:00,18.7,-0.6,29.87,NW,315,9.0,11.0,42,0.00,,OVC021,0.00,0.00,VWS V14.01,2013-01-22 21:45:00,
2013-01-22 16:50:00,18.6,-0.7,29.87,NW,313,6.0,10.0,42,0.00,,OVC021,0.00,0.00,VWS V14.01,2013-01-22 21:50:00,
2013-01-22 16:55:00,18.4,-0.9,29.88,WNW,288,3.0,5.0,42,0.00,,OVC021,0.00,0.00,VWS V14.01,2013-01-22 21:55:00,
2013-01-22 17:00:00,18.3,-0.9,29.88,NW,319,7.0,9.0,42,0.00,,OVC021,0.00,0.00,VWS V14.01,2013-01-22 22:00:00,
2013-01-22 17:05:00,18.2,-1.0,29.88,WNW,302,5.0,9.0,42,0.00,,OVC021,0.00,0.00,VWS V14.01,2013-01-22 22:05:00,
2013-01-22 17:06:00,18.2,-1.0,29.88,WNW,294,3.0,8.0,42,0.00,,OVC021,0.00,0.00,VWS V14.01,2013-01-22 22:06:00,
2013-01-22 17:10:00,18.1,-0.6,29.88,WNW,300,6.0,8.0,43,0.00,,OVC021,0.00,0.00,VWS V14.01,2013-01-22 22:10:00,
2013-01-22 17:11:00,18.0,-0.7,29.89,WNW,300,3.0,7.0,43,0.00,,OVC021,0.00,0.00,VWS V14.01,2013-01-22 22:11:00,
2013-01-22 17:15:00,17.9,-0.8,29.89,West,274,6.0,8.0,43,0.00,,OVC021,0.00,0.00,VWS V14.01,2013-01-22 22:15:00,
2013-01-22 17:17:00,17.9,-0.8,29.89,WNW,290,6.0,9.0,43,0.00,,OVC021,0.00,0.00,VWS V14.01,2013-01-22 22:17:00,
2013-01-22 17:20:00,17.9,-0.8,29.89,West,267,6.0,9.0,43,0.00,,OVC021,0.00,0.00,VWS V14.01,2013-01-22 22:20:00,
2013-01-22 17:22:00,17.8,-1.9,29.90,NW,304,11.0,14.0,41,0.00,,OVC021,0.00,0.00,VWS V14.01,2013-01-22 22:22:00,
2013-01-22 17:25:00,17.8,-1.9,29.90,WNW,288,8.0,15.0,41,0.00,,OVC021,0.00,0.00,VWS V14.01,2013-01-22 22:25:00,
2013-01-22 17:27:00,17.7,-2.5,29.90,West,278,7.0,17.0,40,0.00,,OVC021,0.00,0.00,VWS V14.01,2013-01-22 22:27:00,
2013-01-22 17:30:00,17.7,-2.5,29.90,WNW,292,5.0,17.0,40,0.00,,OVC021,0.00,0.00,VWS V14.01,2013-01-22 22:30:00,
2013-01-22 17:32:00,17.5,-2.2,29.90,NW,313,6.0,12.0,41,0.00,,OVC021,0.00,0.00,VWS V14.01,2013-01-22 22:32:00,
2013-01-22 17:35:00,17.5,-2.2,29.90,NW,306,13.0,16.0,41,0.00,,OVC021,0.00,0.00,VWS V14.01,2013-01-22 22:35:00,
2013-01-22 17:37:00,17.3,-2.3,29.91,WNW,282,8.0,18.0,41,0.00,,OVC021,0.00,0.00,VWS V14.01,2013-01-22 22:37:00,
2013-01-22 17:40:00,17.3,-2.3,29.91,West,279,8.0,18.0,41,0.00,,OVC021,0.00,0.00,VWS V14.01,2013-01-22 22:40:00,
2013-01-22 17:43:00,17.2,-1.9,29.91,WNW,290,5.0,15.0,42,0.00,,OVC021,0.00,0.00,VWS V14.01,2013-01-22 22:43:00,
2013-01-22 17:45:00,17.1,-1.5,29.91,WNW,296,12.0,18.0,43,0.00,,OVC021,0.00,0.00,VWS V14.01,2013-01-22 22:45:00,
2013-01-22 17:48:00,17.0,-2.1,29.91,NW,310,16.0,16.0,42,0.00,,OVC021,0.00,0.00,VWS V14.01,2013-01-22 22:48:00,
2013-01-22 17:50:00,17.0,-2.1,29.91,NW,310,14.0,16.0,42,0.00,,OVC021,0.00,0.00,VWS V14.01,2013-01-22 22:50:00,
2013-01-22 17:53:00,16.9,-1.7,29.91,NW,312,10.0,15.0,43,0.00,,OVC021,0.00,0.00,VWS V14.01,2013-01-22 22:53:00,
2013-01-22 17:55:00,17.0,-2.1,29.91,WNW,300,14.0,15.0,42,0.00,,OVC021,0.00,0.00,VWS V14.01,2013-01-22 22:55:00,
2013-01-22 17:58:00,16.9,-2.2,29.92,WSW,252,10.0,17.0,42,0.00,,OVC021,0.00,0.00,VWS V14.01,2013-01-22 22:58:00,
2013-01-22 18:00:00,16.9,-2.2,29.92,West,275,13.0,17.0,42,0.00,,OVC021,0.00,0.00,VWS V14.01,2013-01-22 23:00:00,
2013-01-22 18:03:00,16.8,-1.8,29.92,NW,308,4.0,18.0,43,0.00,,OVC021,0.00,0.00,VWS V14.01,2013-01-22 23:03:00,
2013-01-22 18:05:00,16.7,-1.9,29.92,WNW,300,6.0,18.0,43,0.00,,OVC021,0.00,0.00,VWS V14.01,2013-01-22 23:05:00,
2013-01-22 18:08:00,16.5,-0.2,29.92,WNW,295,11.0,13.0,47,0.00,,OVC021,0.00,0.00,VWS V14.01,2013-01-22 23:08:00,
2013-01-22 18:10:00,16.5,-0.2,29.92,WNW,286,9.0,13.0,47,0.00,,OVC021,0.00,0.00,VWS V14.01,2013-01-22 23:10:00,
2013-01-22 18:13:00,16.5,-1.6,29.92,WNW,289,6.0,15.0,44,0.00,,OVC021,0.00,0.00,VWS V14.01,2013-01-22 23:13:00,
2013-01-22 18:15:00,16.5,-1.6,29.92,WNW,289,6.0,15.0,44,0.00,,OVC021,0.00,0.00,VWS V14.01,2013-01-22 23:15:00,
2013-01-22 18:18:00,16.3,-1.3,29.93,WNW,302,2.0,9.0,45,0.00,,OVC021,0.00,0.00,VWS V14.01,2013-01-22 23:18:00,
2013-01-22 18:20:00,16.3,-1.3,29.93,WNW,302,2.0,9.0,45,0.00,,OVC021,0.00,0.00,VWS V14.01,2013-01-22 23:20:00,
2013-01-22 18:23:00,16.2,-1.4,29.93,West,267,7.0,12.0,45,0.00,,OVC021,0.00,0.00,VWS V14.01,2013-01-22 23:23:00,
2013-01-22 18:25:00,16.2,-1.4,29.93,West,267,7.0,12.0,45,0.00,,OVC021,0.00,0.00,VWS V14.01,2013-01-22 23:25:00,
2013-01-22 18:28:00,16.1,-1.5,29.93,WNW,295,6.0,11.0,45,0.00,,OVC021,0.00,0.00,VWS V14.01,2013-01-22 23:28:00,
2013-01-22 18:30:00,16.1,-1.5,29.93,WNW,295,6.0,11.0,45,0.00,,OVC021,0.00,0.00,VWS V14.01,2013-01-22 23:30:00,
2013-01-22 18:33:00,16.0,-1.6,29.93,WNW,294,5.0,10.0,45,0.00,,OVC021,0.00,0.00,VWS V14.01,2013-01-22 23:33:00,
2013-01-22 18:35:00,16.0,-1.6,29.93,WNW,294,5.0,10.0,45,0.00,,OVC021,0.00,0.00,VWS V14.01,2013-01-22 23:35:00,
2013-01-22 18:38:00,15.9,-1.2,29.94,West,277,10.0,10.0,46,0.00,,OVC021,0.00,0.00,VWS V14.01,2013-01-22 23:38:00,
2013-01-22 18:40:00,15.9,-1.2,29.94,WSW,248,8.0,11.0,46,0.00,,OVC021,0.00,0.00,VWS V14.01,2013-01-22 23:40:00,
2013-01-22 18:44:00,15.9,-1.7,29.94,WNW,296,7.0,8.0,45,0.00,,OVC021,0.00,0.00,VWS V14.01,2013-01-22 23:44:00,
2013-01-22 18:45:00,15.9,-1.2,29.94,WNW,302,7.0,15.0,46,0.00,,OVC021,0.00,0.00,VWS V14.01,2013-01-22 23:45:00,
2013-01-22 18:49:00,15.8,-1.3,29.94,West,265,9.0,12.0,46,0.00,,OVC021,0.00,0.00,VWS V14.01,2013-01-22 23:49:00,
2013-01-22 18:50:00,15.8,-1.3,29.94,West,273,9.0,10.0,46,0.00,,OVC021,0.00,0.00,VWS V14.01,2013-01-22 23:50:00,
2013-01-22 18:54:00,15.7,-1.4,29.95,WNW,286,5.0,10.0,46,0.00,,OVC021,0.00,0.00,VWS V14.01,2013-01-22 23:54:00,
2013-01-22 18:55:00,15.7,-1.4,29.95,West,272,6.0,12.0,46,0.00,,OVC021,0.00,0.00,VWS V14.01,2013-01-22 23:55:00,
2013-01-22 18:59:00,15.6,-1.0,29.95,West,276,9.0,9.0,47,0.00,,OVC021,0.00,0.00,VWS V14.01,2013-01-22 23:59:00,
2013-01-22 19:00:00,15.6,-1.0,29.95,West,268,5.0,10.0,47,0.00,,OVC021,0.00,0.00,VWS V14.01,2013-01-23 00:00:00,
2013-01-22 19:05:00,15.5,-1.1,29.95,WNW,290,6.0,10.0,47,0.00,,OVC021,0.00,0.00,VWS V14.01,2013-01-23 00:05:00,
2013-01-22 19:10:00,15.3,-1.3,29.95,WNW,296,4.0,10.0,47,0.00,,OVC021,0.00,0.00,VWS V14.01,2013-01-23 00:10:00,
2013-01-22 19:15:00,15.3,-1.3,29.95,WNW,288,9.0,12.0,47,0.00,,OVC021,0.00,0.00,VWS V14.01,2013-01-23 00:15:00,
2013-01-22 19:20:00,15.2,-1.4,29.96,WNW,286,6.0,12.0,47,0.00,,OVC021,0.00,0.00,VWS V14.01,2013-01-23 00:20:00,
2013-01-22 19:25:00,15.1,-1.5,29.95,West,263,5.0,10.0,47,0.00,,OVC021,0.00,0.00,VWS V14.01,2013-01-23 00:25:00,
2013-01-22 19:30:00,15.0,-1.6,29.96,WNW,301,9.0,11.0,47,0.00,,OVC021,0.00,0.00,VWS V14.01,2013-01-23 00:30:00,
2013-01-22 19:35:00,15.0,-1.6,29.96,WNW,301,7.0,11.0,47,0.00,,OVC021,0.00,0.00,VWS V14.01,2013-01-23 00:35:00,
2013-01-22 19:40:00,15.0,-1.6,29.96,NW,320,8.0,13.0,47,0.00,,OVC021,0.00,0.00,VWS V14.01,2013-01-23 00:40:00,
2013-01-22 19:45:00,14.9,-1.7,29.97,WNW,283,7.0,11.0,47,0.00,,OVC021,0.00,0.00,VWS V14.01,2013-01-23 00:45:00,
2013-01-22 19:50:00,14.9,-1.7,29.97,NW,315,4.0,12.0,47,0.00,,OVC021,0.00,0.00,VWS V14.01,2013-01-23 00:50:00,
2013-01-22 19:55:00,14.8,-1.3,29.97,West,279,9.0,13.0,48,0.00,,OVC021,0.00,0.00,VWS V14.01,2013-01-23 00:55:00,
2013-01-22 20:00:00,14.7,-1.9,29.97,West,265,5.0,10.0,47,0.00,,OVC021,0.00,0.00,VWS V14.01,2013-01-23 01:00:00,
2013-01-22 20:05:00,14.6,-2.0,29.97,WNW,298,6.0,11.0,47,0.00,,OVC021,0.00,0.00,VWS V14.01,2013-01-23 01:05:00,
2013-01-22 20:10:00,14.7,-1.9,29.97,West,281,7.0,11.0,47,0.00,,OVC021,0.00,0.00,VWS V14.01,2013-01-23 01:10:00,
2013-01-22 20:15:00,14.6,-2.0,29.97,WNW,298,5.0,8.0,47,0.00,,OVC021,0.00,0.00,VWS V14.01,2013-01-23 01:15:00,
2013-01-22 20:20:00,14.4,-1.7,29.97,WNW,285,4.0,7.0,48,0.00,,OVC021,0.00,0.00,VWS V14.01,2013-01-23 01:20:00,
2013-01-22 20:25:00,14.3,-1.8,29.97,WNW,288,7.0,11.0,48,0.00,,OVC021,0.00,0.00,VWS V14.01,2013-01-23 01:25:00,
2013-01-22 20:30:00,14.2,-1.9,29.98,WNW,295,2.0,8.0,48,0.00,,OVC021,0.00,0.00,VWS V14.01,2013-01-23 01:30:00,
2013-01-22 20:35:00,14.1,-1.5,29.98,West,273,5.0,10.0,49,0.00,,OVC021,0.00,0.00,VWS V14.01,2013-01-23 01:35:00,
2013-01-22 20:40:00,14.1,-2.0,29.98,WNW,295,5.0,10.0,48,0.00,,OVC021,0.00,0.00,VWS V14.01,2013-01-23 01:40:00,
2013-01-22 20:45:00,14.1,-1.5,29.98,NW,319,3.0,7.0,49,0.00,,OVC021,0.00,0.00,VWS V14.01,2013-01-23 01:45:00,
2013-01-22 20:50:00,13.9,-1.7,29.98,NW,304,2.0,5.0,49,0.00,,OVC021,0.00,0.00,VWS V14.01,2013-01-23 01:50:00,
2013-01-22 20:55:00,13.8,-1.4,29.98,WNW,296,4.0,9.0,50,0.00,,OVC021,0.00,0.00,VWS V14.01,2013-01-23 01:55:00,
2013-01-22 21:00:00,13.7,-1.5,29.98,NW,315,1.0,7.0,50,0.00,,OVC021,0.00,0.00,VWS V14.01,2013-01-23 02:00:00,
2013-01-22 21:05:00,13.6,-1.6,29.98,NW,319,4.0,8.0,50,0.00,,OVC021,0.00,0.00,VWS V14.01,2013-01-23 02:05:00,
2013-01-22 21:10:00,13.6,-1.2,29.98,NW,311,3.0,4.0,51,0.00,,OVC021,0.00,0.00,VWS V14.01,2013-01-23 02:10:00,
2013-01-22 21:15:00,13.5,-1.2,29.98,NNW,331,1.0,6.0,51,0.00,,OVC021,0.00,0.00,VWS V14.01,2013-01-23 02:15:00,
2013-01-22 21:20:00,13.4,-1.3,29.98,NW,319,2.0,4.0,51,0.00,,OVC021,0.00,0.00,VWS V14.01,2013-01-23 02:20:00,
2013-01-22 21:25:00,13.2,-1.5,29.98,WNW,300,1.0,4.0,51,0.00,,OVC021,0.00,0.00,VWS V14.01,2013-01-23 02:25:00,
2013-01-22 21:30:00,13.1,-1.2,29.98,NW,307,3.0,5.0,52,0.00,,OVC021,0.00,0.00,VWS V14.01,2013-01-23 02:30:00,
2013-01-22 21:35:00,13.0,-0.9,29.98,WNW,302,0.0,5.0,53,0.00,,OVC021,0.00,0.00,VWS V14.01,2013-01-23 02:35:00,
2013-01-22 21:40:00,12.8,-0.7,29.98,NW,311,1.0,4.0,54,0.00,,OVC021,0.00,0.00,VWS V14.01,2013-01-23 02:40:00,
2013-01-22 21:45:00,12.7,-0.4,29.98,WNW,288,2.0,7.0,55,0.00,,OVC021,0.00,0.00,VWS V14.01,2013-01-23 02:45:00,
2013-01-22 21:50:00,12.7,-0.4,29.99,WNW,284,8.0,10.0,55,0.00,,OVC021,0.00,0.00,VWS V14.01,2013-01-23 02:50:00,
2013-01-22 21:55:00,12.7,0.0,29.99,West,278,7.0,9.0,56,0.00,,OVC021,0.00,0.00,VWS V14.01,2013-01-23 02:55:00,
2013-01-22 22:00:00,12.7,0.0,29.99,West,261,5.0,11.0,56,0.00,,OVC021,0.00,0.00,VWS V14.01,2013-01-23 03:00:00,
2013-01-22 22:05:00,12.6,0.3,29.99,WNW,294,6.0,10.0,57,0.00,,OVC021,0.00,0.00,VWS V14.01,2013-01-23 03:05:00,
2013-01-22 22:10:00,12.5,0.2,30.00,West,275,7.0,8.0,57,0.00,,OVC021,0.00,0.00,VWS V14.01,2013-01-23 03:10:00,
2013-01-22 22:15:00,12.4,0.4,30.00,West,267,6.0,7.0,58,0.00,,OVC021,0.00,0.00,VWS V14.01,2013-01-23 03:15:00,
2013-01-22 22:20:00,12.3,0.3,30.00,West,271,5.0,8.0,58,0.00,,OVC021,0.00,0.00,VWS V14.01,2013-01-23 03:20:00,
2013-01-22 22:25:00,12.2,0.3,30.00,WNW,288,7.0,7.0,58,0.00,,OVC021,0.00,0.00,VWS V14.01,2013-01-23 03:25:00,
2013-01-22 22:30:00,12.1,0.5,30.00,WNW,290,4.0,8.0,59,0.00,,OVC021,0.00,0.00,VWS V14.01,2013-01-23 03:30:00,
2013-01-22 22:35:00,12.1,0.9,30.00,West,271,2.0,6.0,60,0.00,,OVC021,0.00,0.00,VWS V14.01,2013-01-23 03:35:00,
2013-01-22 22:40:00,12.0,1.1,30.01,West,267,1.0,5.0,61,0.00,,OVC021,0.00,0.00,VWS V14.01,2013-01-23 03:40:00,
2013-01-22 22:45:00,11.8,1.0,30.01,WSW,256,0.0,4.0,61,0.00,,OVC021,0.00,0.00,VWS V14.01,2013-01-23 03:45:00,
2013-01-22 22:50:00,11.8,1.0,30.01,West,266,3.0,7.0,61,0.00,,OVC021,0.00,0.00,VWS V14.01,2013-01-23 03:50:00,
2013-01-22 22:55:00,11.7,0.9,30.01,West,281,1.0,6.0,61,0.00,,OVC021,0.00,0.00,VWS V14.01,2013-01-23 03:55:00,
2013-01-22 23:00:00,11.7,1.2,30.01,WSW,253,5.0,6.0,62,0.00,,OVC021,0.00,0.00,VWS V14.01,2013-01-23 04:00:00,
2013-01-22 23:05:00,11.6,1.1,30.01,West,259,2.0,6.0,62,0.00,,OVC021,0.00,0.00,VWS V14.01,2013-01-23 04:05:00,
2013-01-22 23:10:00,11.5,1.4,30.01,West,280,3.0,5.0,63,0.00,,OVC021,0.00,0.00,VWS V14.01,2013-01-23 04:10:00,
2013-01-22 23:15:00,11.4,1.3,30.01,WNW,293,2.0,6.0,63,0.00,,OVC021,0.00,0.00,VWS V14.01,2013-01-23 04:15:00,
2013-01-22 23:20:00,11.4,1.3,30.01,West,278,4.0,7.0,63,0.00,,OVC021,0.00,0.00,VWS V14.01,2013-01-23 04:20:00,
2013-01-22 23:25:00,11.3,1.2,30.02,WNW,282,5.0,6.0,63,0.00,,OVC021,0.00,0.00,VWS V14.01,2013-01-23 04:25:00,
2013-01-22 23:30:00,11.3,1.2,30.01,West,278,4.0,6.0,63,0.00,,OVC021,0.00,0.00,VWS V14.01,2013-01-23 04:30:00,
2013-01-22 23:35:00,11.1,1.0,30.01,West,271,8.0,8.0,63,0.00,,OVC021,0.00,0.00,VWS V14.01,2013-01-23 04:35:00,
2013-01-22 23:40:00,11.1,0.6,30.01,West,275,7.0,8.0,62,0.00,,OVC021,0.00,0.00,VWS V14.01,2013-01-23 04:40:00,
2013-01-22 23:45:00,11.2,0.4,30.01,WNW,284,7.0,10.0,61,0.00,,OVC021,0.00,0.00,VWS V14.01,2013-01-23 04:45:00,
2013-01-22 23:50:00,11.2,0.0,30.01,WNW,300,6.0,10.0,60,0.00,,OVC021,0.00,0.00,VWS V14.01,2013-01-23 04:50:00,
2013-01-22 23:55:00,11.2,-1.0,30.01,NW,307,2.0,12.0,57,0.00,,OVC021,0.00,0.00,VWS V14.01,2013-01-23 04:55:00,